Find Kosmos-2424

NORAD ID: 29670 Int'l Des: 2006-062 Owner: KVR/IACG Country: RU Constellation: GLONASS operational
MEOCIRCULAR

实时位置

正在加载3D地球...

关于 Kosmos-2424

正在加载描述...

即将过境

Passes for default location (London). Set your location on the main map for personalized predictions.

高度历史

Loading altitude history...

两行轨道根数

1 29670U 06062A 26102.88191008 .00000004 00000-0 00000+0 0 9997
2 29670 64.6911 196.4556 0022553 354.8388 54.2725 2.13117507150193
Epoch: Apr 12, 2026 • Age: 107 hours

当前状态

高度 19181.0 km
速度 3.95 km/s
星下点 -35.58°S, 72.51°E
发射日期 Dec 25, 2006
运行时间 19.3 years
类型 other

技术详情

分类 Payload
质量 1450.00 kg
干质量 1200.00 kg
总质量 1450.00 kg
长度 4.00 m
直径 1.50 m
跨度 7.80 m
形状 Cyl + Ant + 2 Pan
制造商 RESH
平台类型 Uragan
阶段状态 In Orbit
所有者/国家 KVR/IACG/RU

Most Searched